Вернуться в каталог

FENGYUN 1C DEB

АктивенPO
NORAD 30174·DEBRIS·🇨🇳 China

Запущен May 10, 1999 с Taiyuan Satellite Launch Center

Loading…

Ближайшие Пролёты (ближайшие 24 часа)

TLE

СвежийSource: Space-Track

Эпоха: Sep 14, 2026, 11:49 UTC

1 30174U 99025UF  26257.49273847  .00043795  00000-0  29285-2 0  9992
2 30174  98.7753  83.5916 0012065 241.1958 146.8673 15.06751496 24861

Отслеживайте FENGYUN 1C DEB в реальном времени с AllMySat

Download on the App Store